OneWeb SL0347

operational
NORAD ID: 49280 Int'l Des: 2021-090 Owner: ONEWEBN Country: UK Constellation: oneweb
LEOCIRCULARPOLARONEWEB_TYPE

OneWeb SL0347について

説明を読み込み中...

リアルタイム位置

3D地球を読み込み中...

次回通過

高度履歴

Altitude vs Time

uPlot chart will show altitude changes over time

軌道要素

1 49280U 21090B 25304.56219829 .00000024 00000-0 27486-4 0 9998
2 49280 87.9192 320.0413 0001785 103.6303 256.5029 13.20769590200868
Epoch: Oct 31, 2025 • Age: 10 hours

現在のステータス

高度 1211.9 km
速度 7.25 km/s
衛星直下点 -86.96°S, 122.93°W
打ち上げ日 Oct 14, 2021
運用期間 4 years
タイプ internet

技術仕様

分類 Payload
質量 148.00 kg
乾燥質量 140.00 kg
総質量 148.00 kg
長さ 1.30 m
直径 1.00 m
スパン 5.00 m
形状 Trapezoid+2 pan
製造者 ONEWUS
バスタイプ ARROW
フェーズステータス In Orbit
所有者/国 ONEWEBN/UK

大規模コンステレーション

Loading constellations...